Time,TemperatureF,DewpointF,PressureIn,WindDirection,WindDirectionDegrees,WindSpeedMPH,WindSpeedGustMPH,Humidity,HourlyPrecipIn,Conditions,Clouds,dailyrainin,SoftwareType,DateUTC
2013-01-12 00:03:00,52.0,46.0,-100.00,South,185,9.0,12.0,80,0.00,,,-99.99,,2013-01-12 05:03:00,
2013-01-12 00:12:00,52.0,46.0,-100.00,South,185,9.0,12.0,82,0.00,,,-99.99,,2013-01-12 05:12:00,
2013-01-12 00:22:00,52.0,46.0,-100.00,South,185,9.0,14.0,82,0.00,,,-99.99,,2013-01-12 05:22:00,
2013-01-12 00:32:00,51.0,46.0,-100.00,South,190,9.0,15.0,82,0.00,,,-99.99,,2013-01-12 05:32:00,
2013-01-12 00:42:00,51.0,46.0,-100.00,South,190,9.0,12.0,83,0.00,,,-99.99,,2013-01-12 05:42:00,
2013-01-12 00:52:00,51.0,46.0,-100.00,South,180,9.0,13.0,83,0.00,,,-99.99,,2013-01-12 05:52:00,
2013-01-12 01:02:00,51.0,46.0,-100.00,South,180,9.0,16.0,83,0.00,,,-99.99,,2013-01-12 06:02:00,
2013-01-12 01:12:00,51.0,46.0,-100.00,South,190,11.0,16.0,84,0.00,,,-99.99,,2013-01-12 06:12:00,
2013-01-12 01:22:00,51.0,46.0,-100.00,South,180,7.0,14.0,84,0.00,,,-99.99,,2013-01-12 06:22:00,
2013-01-12 01:33:00,50.0,46.0,-100.00,South,190,10.0,14.0,84,0.00,,,-99.99,,2013-01-12 06:33:00,
2013-01-12 01:42:00,50.0,46.0,-100.00,South,180,9.0,15.0,85,0.00,,,-99.99,,2013-01-12 06:42:00,
2013-01-12 01:52:00,50.0,46.0,-100.00,South,185,9.0,16.0,86,0.00,,,-99.99,,2013-01-12 06:52:00,
2013-01-12 02:02:00,50.0,46.0,-100.00,South,180,9.0,16.0,86,0.00,,,-99.99,,2013-01-12 07:02:00,
2013-01-12 02:12:00,49.0,46.0,-100.00,South,185,7.0,14.0,87,0.00,,,-99.99,,2013-01-12 07:12:00,
2013-01-12 02:22:00,49.0,46.0,-100.00,South,190,9.0,14.0,87,0.00,,,-99.99,,2013-01-12 07:22:00,
2013-01-12 02:32:00,49.0,46.0,-100.00,South,170,7.0,14.0,88,0.00,,,-99.99,,2013-01-12 07:32:00,
2013-01-12 02:42:00,49.0,46.0,-100.00,South,175,7.0,11.0,88,0.00,,,-99.99,,2013-01-12 07:42:00,
2013-01-12 02:52:00,49.0,46.0,-100.00,South,185,7.0,12.0,87,0.00,,,-99.99,,2013-01-12 07:52:00,
2013-01-12 03:02:00,50.0,46.0,-100.00,South,180,7.0,12.0,87,0.00,,,-99.99,,2013-01-12 08:02:00,
2013-01-12 03:12:00,50.0,46.0,-100.00,South,170,7.0,13.0,87,0.00,,,-99.99,,2013-01-12 08:12:00,
2013-01-12 03:22:00,50.0,46.0,-100.00,South,170,7.0,13.0,87,0.00,,,-99.99,,2013-01-12 08:22:00,
2013-01-12 03:32:00,50.0,47.0,-100.00,South,180,9.0,14.0,88,0.00,,,-99.99,,2013-01-12 08:32:00,
2013-01-12 03:42:00,50.0,46.0,-100.00,South,175,7.0,12.0,87,0.00,,,-99.99,,2013-01-12 08:42:00,
2013-01-12 03:52:00,50.0,47.0,-100.00,South,170,7.0,14.0,87,0.00,,,-99.99,,2013-01-12 08:52:00,
2013-01-12 04:02:00,51.0,47.0,-100.00,South,170,9.0,12.0,87,0.00,,,-99.99,,2013-01-12 09:02:00,
2013-01-12 04:12:00,50.0,47.0,-100.00,South,180,6.0,12.0,88,0.00,,,-99.99,,2013-01-12 09:12:00,
2013-01-12 04:22:00,50.0,47.0,-100.00,SSE,165,7.0,12.0,88,0.00,,,-99.99,,2013-01-12 09:22:00,
2013-01-12 04:32:00,50.0,47.0,-100.00,South,185,7.0,12.0,89,0.00,,,-99.99,,2013-01-12 09:32:00,
2013-01-12 04:42:00,50.0,47.0,-100.00,South,175,6.0,11.0,90,0.00,,,-99.99,,2013-01-12 09:42:00,
2013-01-12 04:53:00,49.0,47.0,-100.00,South,180,6.0,12.0,91,0.00,,,-99.99,,2013-01-12 09:53:00,
2013-01-12 05:02:00,50.0,47.0,-100.00,South,175,7.0,11.0,91,0.00,,,-99.99,,2013-01-12 10:02:00,
2013-01-12 05:12:00,50.0,47.0,-100.00,South,190,8.0,14.0,92,0.00,,,-99.99,,2013-01-12 10:12:00,
2013-01-12 05:22:00,49.0,47.0,-100.00,South,185,6.0,11.0,92,0.00,,,-99.99,,2013-01-12 10:22:00,
2013-01-12 05:32:00,49.0,47.0,-100.00,South,180,4.0,10.0,93,0.00,,,-99.99,,2013-01-12 10:32:00,
2013-01-12 05:42:00,49.0,47.0,-100.00,South,170,6.0,11.0,93,0.00,,,-99.99,,2013-01-12 10:42:00,
2013-01-12 05:52:00,50.0,48.0,-100.00,South,170,6.0,12.0,93,0.00,,,-99.99,,2013-01-12 10:52:00,
2013-01-12 06:02:00,50.0,48.0,-100.00,South,175,7.0,12.0,94,0.00,,,-99.99,,2013-01-12 11:02:00,
2013-01-12 06:12:00,50.0,48.0,-100.00,South,185,7.0,9.0,94,0.00,,,-99.99,,2013-01-12 11:12:00,
2013-01-12 06:22:00,50.0,48.0,-100.00,South,170,6.0,9.0,94,0.00,,,-99.99,,2013-01-12 11:22:00,
2013-01-12 06:33:00,50.0,48.0,-100.00,South,180,5.0,9.0,95,0.00,,,-99.99,,2013-01-12 11:33:00,
2013-01-12 06:42:00,50.0,49.0,-100.00,South,170,7.0,12.0,95,0.00,,,-99.99,,2013-01-12 11:42:00,
2013-01-12 06:52:00,50.0,49.0,-100.00,South,170,7.0,11.0,95,0.00,,,-99.99,,2013-01-12 11:52:00,
2013-01-12 07:03:00,51.0,49.0,-100.00,South,180,7.0,14.0,95,0.00,,,-99.99,,2013-01-12 12:03:00,
2013-01-12 07:12:00,51.0,49.0,-100.00,South,170,9.0,14.0,95,0.00,,,-99.99,,2013-01-12 12:12:00,
2013-01-12 07:22:00,51.0,49.0,-100.00,South,175,8.0,12.0,95,0.00,,,-99.99,,2013-01-12 12:22:00,
2013-01-12 07:33:00,51.0,49.0,-100.00,South,180,7.0,12.0,95,0.00,,,-99.99,,2013-01-12 12:33:00,
2013-01-12 07:42:00,51.0,50.0,-100.00,South,175,8.0,12.0,96,0.00,,,-99.99,,2013-01-12 12:42:00,
2013-01-12 07:52:00,51.0,50.0,-100.00,South,170,8.0,12.0,96,0.00,,,-99.99,,2013-01-12 12:52:00,
2013-01-12 08:02:00,51.0,49.0,-100.00,South,180,8.0,12.0,96,0.00,,,-99.99,,2013-01-12 13:02:00,
2013-01-12 08:12:00,50.0,49.0,-100.00,South,175,6.0,11.0,96,0.00,,,-99.99,,2013-01-12 13:12:00,
2013-01-12 08:22:00,50.0,49.0,-100.00,SSW,195,7.0,12.0,96,0.00,,,-99.99,,2013-01-12 13:22:00,
2013-01-12 08:33:00,50.0,49.0,-100.00,South,180,7.0,12.0,97,0.00,,,-99.99,,2013-01-12 13:33:00,
2013-01-12 08:42:00,50.0,49.0,-100.00,South,175,9.0,13.0,97,0.00,,,-99.99,,2013-01-12 13:42:00,
2013-01-12 08:53:00,50.0,50.0,-100.00,South,170,8.0,12.0,97,0.00,,,-99.99,,2013-01-12 13:53:00,
2013-01-12 09:02:00,50.0,50.0,-100.00,South,170,9.0,16.0,98,0.00,,,-99.99,,2013-01-12 14:02:00,
2013-01-12 09:12:00,50.0,50.0,-100.00,South,190,10.0,14.0,98,0.00,,,-99.99,,2013-01-12 14:12:00,
2013-01-12 09:22:00,51.0,50.0,-100.00,South,175,9.0,16.0,98,0.00,,,-99.99,,2013-01-12 14:22:00,
2013-01-12 09:33:00,51.0,50.0,-100.00,South,180,9.0,13.0,99,0.00,,,-99.99,,2013-01-12 14:33:00,
2013-01-12 09:43:00,51.0,51.0,-100.00,South,170,9.0,16.0,99,0.00,,,-99.99,,2013-01-12 14:43:00,
2013-01-12 09:53:00,51.0,51.0,-100.00,South,180,10.0,16.0,99,0.00,,,-99.99,,2013-01-12 14:53:00,
2013-01-12 10:03:00,52.0,51.0,-100.00,South,180,8.0,12.0,99,0.00,,,-99.99,,2013-01-12 15:03:00,
2013-01-12 10:12:00,52.0,52.0,-100.00,South,185,11.0,16.0,99,0.00,,,-99.99,,2013-01-12 15:12:00,
2013-01-12 10:22:00,53.0,52.0,-100.00,SSW,200,8.0,15.0,98,0.00,,,-99.99,,2013-01-12 15:22:00,
2013-01-12 10:33:00,53.0,52.0,-100.00,South,180,10.0,19.0,98,0.00,,,-99.99,,2013-01-12 15:33:00,
2013-01-12 10:43:00,53.0,53.0,-100.00,South,180,9.0,14.0,97,0.00,,,-99.99,,2013-01-12 15:43:00,
2013-01-12 10:53:00,54.0,53.0,-100.00,SSW,200,7.0,13.0,97,0.00,,,-99.99,,2013-01-12 15:53:00,
2013-01-12 11:03:00,54.0,53.0,-100.00,South,175,11.0,14.0,95,0.00,,,-99.99,,2013-01-12 16:03:00,
2013-01-12 11:12:00,55.0,53.0,-100.00,SSW,200,6.0,12.0,94,0.00,,,-99.99,,2013-01-12 16:12:00,
2013-01-12 11:23:00,55.0,53.0,-100.00,South,190,7.0,14.0,92,0.00,,,-99.99,,2013-01-12 16:23:00,
2013-01-12 11:33:00,56.0,54.0,-100.00,SSW,200,7.0,14.0,92,0.00,,,-99.99,,2013-01-12 16:33:00,
2013-01-12 11:42:00,56.0,54.0,-100.00,South,180,8.0,15.0,91,0.00,,,-99.99,,2013-01-12 16:42:00,
2013-01-12 11:53:00,56.0,53.0,-100.00,South,180,10.0,14.0,90,0.00,,,-99.99,,2013-01-12 16:53:00,
2013-01-12 12:02:00,56.0,54.0,-100.00,South,185,9.0,14.0,90,0.00,,,-99.99,,2013-01-12 17:02:00,
2013-01-12 12:12:00,56.0,53.0,-100.00,South,180,10.0,14.0,90,0.00,,,-99.99,,2013-01-12 17:12:00,
2013-01-12 12:23:00,57.0,54.0,-100.00,South,190,9.0,14.0,90,0.00,,,-99.99,,2013-01-12 17:23:00,
2013-01-12 12:33:00,57.0,54.0,-100.00,South,180,8.0,14.0,89,0.00,,,-99.99,,2013-01-12 17:33:00,
2013-01-12 12:43:00,57.0,54.0,-100.00,South,180,10.0,16.0,88,0.00,,,-99.99,,2013-01-12 17:43:00,
2013-01-12 12:53:00,57.0,54.0,-100.00,South,175,9.0,16.0,88,0.00,,,-99.99,,2013-01-12 17:53:00,
2013-01-12 13:03:00,57.0,54.0,-100.00,SSW,195,10.0,15.0,88,0.00,,,-99.99,,2013-01-12 18:03:00,
2013-01-12 13:12:00,58.0,54.0,-100.00,SSW,205,6.0,12.0,87,0.00,,,-99.99,,2013-01-12 18:12:00,
2013-01-12 13:23:00,58.0,54.0,-100.00,South,185,7.0,12.0,86,0.00,,,-99.99,,2013-01-12 18:23:00,
2013-01-12 13:33:00,58.0,54.0,-100.00,SW,215,6.0,11.0,85,0.00,,,-99.99,,2013-01-12 18:33:00,
2013-01-12 13:42:00,58.0,54.0,-100.00,South,185,9.0,14.0,85,0.00,,,-99.99,,2013-01-12 18:42:00,
2013-01-12 13:52:00,59.0,54.0,-100.00,SSW,210,6.0,14.0,84,0.00,,,-99.99,,2013-01-12 18:52:00,
2013-01-12 14:03:00,59.0,55.0,-100.00,SSW,195,9.0,13.0,85,0.00,,,-99.99,,2013-01-12 19:03:00,
2013-01-12 14:12:00,59.0,55.0,-100.00,South,185,12.0,16.0,84,0.00,,,-99.99,,2013-01-12 19:12:00,
2013-01-12 14:23:00,59.0,55.0,-100.00,South,185,6.0,17.0,84,0.00,,,-99.99,,2013-01-12 19:23:00,
2013-01-12 14:33:00,60.0,55.0,-100.00,SSW,195,11.0,17.0,83,0.00,,,-99.99,,2013-01-12 19:33:00,
2013-01-12 14:43:00,60.0,55.0,-100.00,South,185,11.0,16.0,83,0.00,,,-99.99,,2013-01-12 19:43:00,
2013-01-12 14:52:00,60.0,55.0,-100.00,South,190,9.0,15.0,82,0.00,,,-99.99,,2013-01-12 19:52:00,
2013-01-12 15:03:00,60.0,54.0,-100.00,South,180,10.0,15.0,81,0.00,,,-99.99,,2013-01-12 20:03:00,
2013-01-12 15:12:00,60.0,54.0,-100.00,South,190,7.0,13.0,82,0.00,,,-99.99,,2013-01-12 20:12:00,
2013-01-12 15:22:00,60.0,54.0,-100.00,South,185,7.0,12.0,82,0.00,,,-99.99,,2013-01-12 20:22:00,
2013-01-12 15:33:00,60.0,54.0,-100.00,South,190,6.0,12.0,82,0.00,,,-99.99,,2013-01-12 20:33:00,
2013-01-12 15:42:00,60.0,54.0,-100.00,South,180,6.0,9.0,81,0.00,,,-99.99,,2013-01-12 20:42:00,
2013-01-12 15:53:00,60.0,54.0,-100.00,South,180,6.0,9.0,81,0.00,,,-99.99,,2013-01-12 20:53:00,
2013-01-12 16:03:00,60.0,54.0,-100.00,SSW,195,4.0,8.0,80,0.00,,,-99.99,,2013-01-12 21:03:00,
2013-01-12 16:12:00,60.0,53.0,-100.00,South,185,7.0,9.0,78,0.00,,,-99.99,,2013-01-12 21:12:00,
2013-01-12 16:22:00,59.0,53.0,-100.00,South,175,6.0,9.0,80,0.00,,,-99.99,,2013-01-12 21:22:00,
2013-01-12 16:33:00,59.0,54.0,-100.00,South,175,4.0,8.0,81,0.00,,,-99.99,,2013-01-12 21:33:00,
2013-01-12 16:43:00,59.0,54.0,-100.00,South,170,4.0,8.0,83,0.00,,,-99.99,,2013-01-12 21:43:00,
2013-01-12 16:52:00,59.0,54.0,-100.00,South,170,3.0,7.0,83,0.00,,,-99.99,,2013-01-12 21:52:00,
2013-01-12 17:03:00,57.0,54.0,-100.00,SSE,160,2.0,4.0,87,0.00,,,-99.99,,2013-01-12 22:03:00,
2013-01-12 17:12:00,57.0,54.0,-100.00,SSE,165,4.0,6.0,88,0.00,,,-99.99,,2013-01-12 22:12:00,
2013-01-12 17:23:00,56.0,54.0,-100.00,SE,135,2.0,5.0,91,0.00,,,-99.99,,2013-01-12 22:23:00,
2013-01-12 17:33:00,57.0,54.0,-100.00,ESE,110,2.0,4.0,90,0.00,,,-99.99,,2013-01-12 22:33:00,
2013-01-12 17:43:00,56.0,53.0,-100.00,ENE,60,1.0,2.0,90,0.00,,,-99.99,,2013-01-12 22:43:00,
2013-01-12 17:52:00,56.0,53.0,-100.00,East,90,1.0,2.0,91,0.00,,,-99.99,,2013-01-12 22:52:00,
2013-01-12 18:03:00,55.0,53.0,-100.00,ENE,75,1.0,3.0,91,0.00,,,-99.99,,2013-01-12 23:03:00,
2013-01-12 18:12:00,56.0,53.0,-100.00,ENE,75,2.0,2.0,92,0.00,,,-99.99,,2013-01-12 23:12:00,
2013-01-12 18:22:00,55.0,53.0,-100.00,ENE,70,4.0,5.0,92,0.00,,,-99.99,,2013-01-12 23:22:00,
2013-01-12 18:33:00,55.0,53.0,-100.00,East,80,3.0,5.0,92,0.00,,,-99.99,,2013-01-12 23:33:00,
2013-01-12 18:43:00,54.0,52.0,-100.00,ESE,110,2.0,3.0,93,0.00,,,-99.99,,2013-01-12 23:43:00,
2013-01-12 18:53:00,54.0,53.0,-100.00,East,90,1.0,2.0,94,0.00,,,-99.99,,2013-01-12 23:53:00,
2013-01-12 19:03:00,54.0,52.0,-100.00,East,85,2.0,3.0,94,0.00,,,-99.99,,2013-01-13 00:03:00,
2013-01-12 19:12:00,54.0,53.0,-100.00,East,100,4.0,4.0,94,0.00,,,-99.99,,2013-01-13 00:12:00,
2013-01-12 19:23:00,55.0,53.0,-100.00,East,90,2.0,4.0,94,0.00,,,-99.99,,2013-01-13 00:23:00,
2013-01-12 19:33:00,55.0,53.0,-100.00,ENE,75,4.0,5.0,93,0.00,,,-99.99,,2013-01-13 00:33:00,
2013-01-12 19:43:00,54.0,53.0,-100.00,East,90,4.0,6.0,93,0.00,,,-99.99,,2013-01-13 00:43:00,
2013-01-12 19:52:00,55.0,53.0,-100.00,East,90,4.0,5.0,93,0.00,,,-99.99,,2013-01-13 00:52:00,
2013-01-12 20:03:00,54.0,53.0,-100.00,East,80,4.0,6.0,94,0.00,,,-99.99,,2013-01-13 01:03:00,
2013-01-12 20:12:00,54.0,53.0,-100.00,East,85,3.0,4.0,94,0.00,,,-99.99,,2013-01-13 01:12:00,
2013-01-12 20:23:00,54.0,53.0,-100.00,East,95,3.0,3.0,95,0.00,,,-99.99,,2013-01-13 01:23:00,
2013-01-12 20:33:00,54.0,53.0,-100.00,East,100,3.0,4.0,95,0.00,,,-99.99,,2013-01-13 01:33:00,
2013-01-12 20:43:00,55.0,54.0,-100.00,ESE,105,4.0,6.0,95,0.00,,,-99.99,,2013-01-13 01:43:00,
2013-01-12 20:52:00,56.0,54.0,-100.00,ESE,110,6.0,8.0,94,0.00,,,-99.99,,2013-01-13 01:52:00,
2013-01-12 21:02:00,56.0,54.0,-100.00,SE,125,6.0,8.0,94,1.10,,,-99.99,,2013-01-13 02:02:00,
2013-01-12 21:12:00,56.0,55.0,-100.00,ESE,120,4.0,6.0,95,8.50,,,-99.99,,2013-01-13 02:12:00,
2013-01-12 21:22:00,56.0,55.0,-100.00,SE,130,4.0,6.0,97,27.76,,,-99.99,,2013-01-13 02:22:00,
2013-01-12 21:33:00,56.0,56.0,-100.00,East,100,4.0,6.0,98,27.76,,,-99.99,,2013-01-13 02:33:00,
2013-01-12 21:43:00,56.0,56.0,-100.00,ESE,110,2.0,4.0,98,-99.99,,,-99.99,,2013-01-13 02:43:00,
2013-01-12 21:52:00,56.0,56.0,-100.00,ESE,120,2.0,3.0,99,10.20,,,-99.99,,2013-01-13 02:52:00,
2013-01-12 22:03:00,57.0,56.0,-100.00,SE,140,4.0,6.0,99,19.84,,,-99.99,,2013-01-13 03:03:00,
2013-01-12 22:12:00,57.0,57.0,-100.00,SE,125,6.0,7.0,99,24.92,,,-99.99,,2013-01-13 03:12:00,
2013-01-12 22:22:00,57.0,57.0,-100.00,SE,145,7.0,9.0,99,2.24,,,-99.99,,2013-01-13 03:22:00,
2013-01-12 22:33:00,58.0,58.0,-100.00,SE,145,8.0,13.0,99,11.89,,,-99.99,,2013-01-13 03:33:00,
2013-01-12 22:43:00,59.0,59.0,-100.00,SSE,150,8.0,15.0,99,15.28,,,-99.99,,2013-01-13 03:43:00,
2013-01-12 22:52:00,59.0,59.0,-100.00,SE,135,11.0,13.0,99,3.39,,,-99.99,,2013-01-13 03:52:00,
2013-01-12 23:03:00,59.0,59.0,-100.00,SE,130,10.0,14.0,100,0.00,,,-99.99,,2013-01-13 04:03:00,
2013-01-12 23:12:00,60.0,59.0,-100.00,SE,125,13.0,16.0,99,0.00,,,-99.99,,2013-01-13 04:12:00,
2013-01-12 23:22:00,60.0,59.0,-100.00,SE,135,15.0,19.0,98,0.00,,,-99.99,,2013-01-13 04:22:00,
2013-01-12 23:33:00,60.0,59.0,-100.00,SE,145,14.0,23.0,98,0.00,,,-99.99,,2013-01-13 04:33:00,
2013-01-12 23:42:00,61.0,60.0,-100.00,SE,145,17.0,26.0,97,0.00,,,-99.99,,2013-01-13 04:42:00,
2013-01-12 23:52:00,61.0,60.0,-100.00,SSE,155,15.0,24.0,95,0.00,,,-99.99,,2013-01-13 04:52:00,